FENGYUN 2H DEB, 43645

Orbit data source: Space-Track

FENGYUN 2H DEB, 43645 is space debris in GEO originally from a launch on Tue, 05 Jun 2018 UTC launched from the Xichang Space Center, China (XSC). Debris objects in space refer to the collection of defunct objects orbiting the Earth. Examples of debris include non-operational satellites, rocket bodies, and fragments generated from explosions, collisions, or faulty payload assembly.

Not visible in the next 10 days
Identifier
43645, 2018-050D
Orbit
GEO
Last TLE update
1 day ago
Origin
Manufacturer
SISE
Mission
Spacecraft
Bus & Motor
Unknown
Mass
Unknown
Launch date (UTC)
2018-06-05 (7 years ago)
Launch vehicle
Unknown
Launch site
Xichang Space Center, China (XSC)
Object type
Payload
Rocket body
Debris
Shape & HBR
Cyl, 0.5 m
Radar Cross Section
0.137 m²

Expand to show TLE details & history

TLE from 1 day ago
0 FENGYUN 2H DEB
1 43645U 18050D   25188.22180013 -.00000060  00000-0  00000-0 0  9994
2 43645   4.0121  80.7138 0041103 262.3590  96.8946  1.00220196 25465
Epoch: 2025-07-07T05:19Z
TLE epoch observation values (Epoch: 2025-07-07T05:19:23.531Z)
Latitude
-0°
Longitude
75.15461°
Altitude
35,822.72 km
Speed
3.073 km/s
True Right ascension
05h 21m 44s
True Declination
0° 00' 00"
Sunlit
Object was in daylight at epoch
Visualization orbit readout
Latitude
2.46644°
Longitude
112.78211°
Altitude
35,922.795 km
Speed
3.065 km/s
Apparent Right ascension
07h 52m 18s
Apparent Declination
-2° 44' 03"
Sunlit
Object is in daylight
Visualization observer readout
Local Sidereal Time
19:52:47
Azimuth
0.199° NNE
Elevation
-52.818°
Doppler factor
1
Orbital elements
Apogee altitude
35,975.499 km
Perigee altitude
35,628.752 km
Semi-major axis
42,180.263 km
Eccentricity
0.00411
Inclination
4.0121°
RAAN
80.7138°
Arg. of periapsis
262.359°
True anomaly
Unknown
Mean anomaly
96.8946°
Eccentric anomaly
Unknown
Mean motion
0.25054 °/min
Orbital period
1,436.89 mins
BSTAR
0
Loading historical data...
43645 neighbors
Loading maneuver chart data...
Loading SW <> Apogee altitude chart data...
Loading historical data...
Loading historical data...
Loading historical data...
Loading historical data...
Loading historical data...
Loading historical data...
Loading historical data...
Other satellites on launch #50 in the year 2018 (2018-06-05 UTC)

FENGYUN 2H DEB Visibility

Observer location: undefined°, undefined°

FENGYUN 2H DEB is likely not visible in the next few days
Span
Click to sort rows by Start time (UTC) header in descending order
Start Az.
Max El. time (UTC)
Max El. Az.
Max El.
End time (UTC)
End Az.
|